Time,TemperatureF,DewpointF,PressureIn,WindDirection,WindDirectionDegrees,WindSpeedMPH,WindSpeedGustMPH,Humidity,HourlyPrecipIn,Conditions,Clouds,dailyrainin,SoftwareType,DateUTC
2013-02-24 09:07:00,31.6,27.7,29.74,South,179,0.0,0.0,85,0.00,,,0.00,VWS V13.01,2013-02-24 15:07:00,
2013-02-24 09:08:00,31.3,27.3,29.74,South,179,0.0,0.0,85,0.00,,,0.00,VWS V13.01,2013-02-24 15:08:00,
2013-02-24 09:09:00,31.1,27.1,29.74,South,179,0.0,0.0,85,0.00,,,0.00,VWS V13.01,2013-02-24 15:09:00,
2013-02-24 09:12:00,32.2,28.2,29.74,South,179,0.0,0.0,85,0.00,,,0.00,VWS V13.01,2013-02-24 15:12:00,
2013-02-24 09:17:00,33.3,29.2,29.74,South,179,0.0,0.0,85,0.00,,,0.00,VWS V13.01,2013-02-24 15:17:00,
2013-02-24 09:22:00,34.9,29.0,29.74,South,179,0.0,0.0,79,0.00,,,0.00,VWS V13.01,2013-02-24 15:22:00,
2013-02-24 09:27:00,35.1,29.2,29.74,South,179,0.0,0.0,79,0.00,,,0.00,VWS V13.01,2013-02-24 15:27:00,
2013-02-24 09:32:00,33.6,29.6,29.74,South,179,0.0,0.0,85,0.00,,,0.00,VWS V13.01,2013-02-24 15:32:00,
2013-02-24 09:37:00,31.6,27.7,29.74,South,179,0.0,0.0,85,0.00,,,0.00,VWS V13.01,2013-02-24 15:37:00,
2013-02-24 09:38:00,31.8,27.8,29.74,South,179,0.0,0.0,85,0.00,,,0.00,VWS V13.01,2013-02-24 15:38:00,
2013-02-24 09:42:00,32.5,28.5,29.74,South,179,0.0,0.0,85,0.00,,,0.00,VWS V13.01,2013-02-24 15:42:00,
2013-02-24 09:43:00,32.7,28.7,29.74,South,179,0.0,0.0,85,0.00,,,0.00,VWS V13.01,2013-02-24 15:43:00,
2013-02-24 09:47:00,32.2,28.2,29.74,South,180,0.0,0.0,85,0.00,,,0.00,VWS V13.01,2013-02-24 15:47:00,
2013-02-24 09:48:00,32.2,28.2,29.74,South,179,0.0,0.0,85,0.00,,,0.00,VWS V13.01,2013-02-24 15:48:00,
2013-02-24 09:52:00,33.8,28.0,29.74,South,179,0.0,0.0,79,0.00,,,0.00,VWS V13.01,2013-02-24 15:52:00,
2013-02-24 09:53:00,33.8,28.0,29.74,South,179,2.7,2.7,79,0.00,,,0.00,VWS V13.01,2013-02-24 15:53:00,
2013-02-24 09:57:00,32.5,28.5,29.74,SSE,165,0.0,0.0,85,0.00,,,0.00,VWS V13.01,2013-02-24 15:57:00,
2013-02-24 09:58:00,32.7,28.7,29.74,SSE,165,0.0,0.0,85,0.00,,,0.00,VWS V13.01,2013-02-24 15:58:00,
2013-02-24 10:02:00,33.8,28.0,29.74,SSE,165,0.0,0.0,79,0.00,,,0.00,VWS V13.01,2013-02-24 16:02:00,
2013-02-24 10:03:00,34.2,28.3,29.74,SSE,165,0.0,0.0,79,0.00,,,0.00,VWS V13.01,2013-02-24 16:03:00,
2013-02-24 10:07:00,33.8,28.0,29.74,SSE,165,3.1,3.1,79,0.00,,,0.00,VWS V13.01,2013-02-24 16:07:00,
2013-02-24 10:08:00,34.5,28.7,29.74,SSE,164,2.7,2.7,79,0.00,,,0.00,VWS V13.01,2013-02-24 16:08:00,
2013-02-24 10:12:00,35.4,29.6,29.74,NE,50,3.1,3.1,79,0.00,,,0.00,VWS V13.01,2013-02-24 16:12:00,
2013-02-24 10:13:00,35.6,29.7,29.74,NE,47,3.6,3.6,79,0.00,,,0.00,VWS V13.01,2013-02-24 16:13:00,
2013-02-24 10:17:00,35.8,29.9,29.74,NE,51,0.0,0.0,79,0.00,,,0.00,VWS V13.01,2013-02-24 16:17:00,
2013-02-24 10:18:00,36.7,30.8,29.74,NE,51,2.2,2.2,79,0.00,,,0.00,VWS V13.01,2013-02-24 16:18:00,
2013-02-24 10:22:00,36.7,34.3,29.74,NE,52,0.0,0.0,91,0.00,,,0.00,VWS V13.01,2013-02-24 16:22:00,
2013-02-24 10:23:00,36.5,34.1,29.74,NE,52,0.0,0.0,91,0.00,,,0.00,VWS V13.01,2013-02-24 16:23:00,
2013-02-24 10:27:00,34.9,29.0,29.74,NE,54,0.0,0.0,79,0.00,,,0.00,VWS V13.01,2013-02-24 16:27:00,
2013-02-24 10:28:00,35.1,29.2,29.74,NE,54,0.0,0.0,79,0.00,,,0.00,VWS V13.01,2013-02-24 16:28:00,
2013-02-24 10:32:00,36.0,33.6,29.74,NE,50,2.2,2.2,91,0.00,,,0.00,VWS V13.01,2013-02-24 16:32:00,
2013-02-24 10:33:00,35.8,33.4,29.74,NE,50,0.0,0.0,91,0.00,,,0.00,VWS V13.01,2013-02-24 16:33:00,
2013-02-24 10:37:00,36.3,34.0,29.74,NE,51,0.0,0.0,91,0.00,,,0.00,VWS V13.01,2013-02-24 16:37:00,
2013-02-24 10:38:00,36.5,34.1,29.74,NE,51,0.0,0.0,91,0.00,,,0.00,VWS V13.01,2013-02-24 16:38:00,
2013-02-24 10:42:00,35.8,33.4,29.74,ENE,68,2.2,2.2,91,0.00,,,0.00,VWS V13.01,2013-02-24 16:42:00,
2013-02-24 10:43:00,36.1,33.8,29.74,ENE,67,3.6,3.6,91,0.00,,,0.00,VWS V13.01,2013-02-24 16:43:00,
2013-02-24 10:47:00,36.7,34.3,29.74,ENE,78,3.1,3.1,91,0.00,,,0.00,VWS V13.01,2013-02-24 16:47:00,
2013-02-24 10:48:00,36.7,34.3,29.74,ENE,75,2.7,2.7,91,0.00,,,0.00,VWS V13.01,2013-02-24 16:48:00,
2013-02-24 10:52:00,38.8,36.4,29.74,ENE,75,0.0,0.0,91,0.00,,,0.00,VWS V13.01,2013-02-24 16:52:00,
2013-02-24 10:53:00,39.4,35.2,29.74,ENE,75,0.0,0.0,85,0.00,,,0.00,VWS V13.01,2013-02-24 16:53:00,
2013-02-24 10:57:00,37.4,35.0,29.74,ENE,65,0.0,0.0,91,0.00,,,0.00,VWS V13.01,2013-02-24 16:57:00,
2013-02-24 10:58:00,37.2,34.8,29.74,ENE,77,0.0,0.0,91,0.00,,,0.00,VWS V13.01,2013-02-24 16:58:00,
2013-02-24 11:02:00,37.6,35.2,29.74,ENE,68,0.0,0.0,91,0.00,,,0.00,VWS V13.01,2013-02-24 17:02:00,
2013-02-24 11:03:00,37.6,35.2,29.74,ENE,68,0.0,0.0,91,0.00,,,0.00,VWS V13.01,2013-02-24 17:03:00,
2013-02-24 11:08:00,39.7,35.6,29.74,ENE,77,0.0,0.0,85,0.00,,,0.00,VWS V13.01,2013-02-24 17:08:00,
2013-02-24 11:13:00,39.9,35.8,29.74,ENE,77,0.0,0.0,85,0.00,,,0.00,VWS V13.01,2013-02-24 17:13:00,
2013-02-24 11:18:00,40.8,36.7,29.74,ENE,77,0.0,0.0,85,0.00,,,0.00,VWS V13.01,2013-02-24 17:18:00,
2013-02-24 11:23:00,42.3,38.1,29.74,ENE,77,0.0,0.0,85,0.00,,,0.00,VWS V13.01,2013-02-24 17:23:00,
2013-02-24 11:28:00,43.5,39.3,29.74,ENE,77,0.0,0.0,85,0.00,,,0.00,VWS V13.01,2013-02-24 17:28:00,
2013-02-24 11:33:00,45.1,39.0,29.74,ENE,78,0.0,0.0,79,0.00,,,0.00,VWS V13.01,2013-02-24 17:33:00,
2013-02-24 11:38:00,45.7,39.5,29.74,ENE,78,0.0,0.0,79,0.00,,,0.00,VWS V13.01,2013-02-24 17:38:00,
2013-02-24 11:39:00,45.9,39.7,29.74,ENE,78,0.0,0.0,79,0.00,,,0.00,VWS V13.01,2013-02-24 17:39:00,
2013-02-24 11:43:00,46.6,40.4,29.74,East,79,0.0,0.0,79,0.00,,,0.00,VWS V13.01,2013-02-24 17:43:00,
2013-02-24 11:44:00,46.9,40.8,29.74,East,79,0.0,0.0,79,0.00,,,0.00,VWS V13.01,2013-02-24 17:44:00,
2013-02-24 11:48:00,48.6,40.3,29.74,East,79,0.0,0.0,73,0.00,,,0.00,VWS V13.01,2013-02-24 17:48:00,
2013-02-24 11:49:00,48.7,40.5,29.74,East,79,0.0,0.0,73,0.00,,,0.00,VWS V13.01,2013-02-24 17:49:00,
2013-02-24 11:53:00,49.5,41.2,29.74,East,79,0.0,0.0,73,0.00,,,0.00,VWS V13.01,2013-02-24 17:53:00,
2013-02-24 11:54:00,49.3,41.0,29.74,East,79,0.0,0.0,73,0.00,,,0.00,VWS V13.01,2013-02-24 17:54:00,
2013-02-24 11:58:00,50.2,41.9,29.74,East,79,0.0,0.0,73,0.00,,,0.00,VWS V13.01,2013-02-24 17:58:00,
2013-02-24 11:59:00,50.2,41.9,29.74,East,79,0.0,0.0,73,0.00,,,0.00,VWS V13.01,2013-02-24 17:59:00,
2013-02-24 12:03:00,52.2,43.8,29.74,East,79,0.0,0.0,73,0.00,,,0.00,VWS V13.01,2013-02-24 18:03:00,
2013-02-24 12:04:00,52.2,43.8,29.74,East,79,0.0,0.0,73,0.00,,,0.00,VWS V13.01,2013-02-24 18:04:00,
2013-02-24 12:08:00,52.3,44.0,29.74,East,79,0.0,0.0,73,0.00,,,0.00,VWS V13.01,2013-02-24 18:08:00,
2013-02-24 12:09:00,52.5,44.1,29.74,East,79,0.0,0.0,73,0.00,,,0.00,VWS V13.01,2013-02-24 18:09:00,
2013-02-24 12:13:00,51.4,43.1,29.74,East,80,0.0,0.0,73,0.00,,,0.00,VWS V13.01,2013-02-24 18:13:00,
2013-02-24 12:14:00,51.4,43.1,29.74,East,80,0.0,0.0,73,0.00,,,0.00,VWS V13.01,2013-02-24 18:14:00,
2013-02-24 12:18:00,52.7,44.3,29.74,East,80,0.0,0.0,73,0.00,,,0.00,VWS V13.01,2013-02-24 18:18:00,
2013-02-24 12:19:00,52.9,44.5,29.74,East,80,0.0,0.0,73,0.00,,,0.00,VWS V13.01,2013-02-24 18:19:00,
2013-02-24 12:23:00,52.3,44.0,29.74,East,80,0.0,0.0,73,0.00,,,0.00,VWS V13.01,2013-02-24 18:23:00,
2013-02-24 12:24:00,52.2,43.8,29.74,East,80,0.0,0.0,73,0.00,,,0.00,VWS V13.01,2013-02-24 18:24:00,
2013-02-24 12:28:00,50.9,42.6,29.71,East,81,0.0,0.0,73,0.00,,,0.00,VWS V13.01,2013-02-24 18:28:00,
2013-02-24 12:29:00,50.7,42.4,29.71,East,83,2.7,2.7,73,0.00,,,0.00,VWS V13.01,2013-02-24 18:29:00,
2013-02-24 12:33:00,50.9,42.6,29.71,ESE,121,4.0,4.0,73,0.00,,,0.00,VWS V13.01,2013-02-24 18:33:00,
2013-02-24 12:34:00,50.4,42.0,29.71,ESE,122,3.6,3.6,73,0.00,,,0.00,VWS V13.01,2013-02-24 18:34:00,
2013-02-24 12:38:00,50.7,42.4,29.71,ESE,121,2.7,2.7,73,0.00,,,0.00,VWS V13.01,2013-02-24 18:38:00,
2013-02-24 12:39:00,50.2,41.9,29.71,ESE,122,3.1,3.1,73,0.00,,,0.00,VWS V13.01,2013-02-24 18:39:00,
2013-02-24 12:43:00,51.1,42.7,29.71,SE,129,2.7,2.7,73,0.00,,,0.00,VWS V13.01,2013-02-24 18:43:00,
2013-02-24 12:44:00,51.1,42.7,29.71,SE,129,3.6,3.6,73,0.00,,,0.00,VWS V13.01,2013-02-24 18:44:00,
2013-02-24 12:48:00,51.3,42.9,29.71,SE,129,0.0,0.0,73,0.00,,,0.00,VWS V13.01,2013-02-24 18:48:00,
2013-02-24 12:49:00,51.4,43.1,29.71,SE,129,0.0,0.0,73,0.00,,,0.00,VWS V13.01,2013-02-24 18:49:00,
2013-02-24 12:53:00,52.2,43.8,29.71,SE,129,0.0,0.0,73,0.00,,,0.00,VWS V13.01,2013-02-24 18:53:00,
2013-02-24 12:54:00,52.7,44.3,29.71,SE,129,0.0,0.0,73,0.00,,,0.00,VWS V13.01,2013-02-24 18:54:00,
2013-02-24 12:58:00,52.9,44.5,29.71,SE,129,0.0,0.0,73,0.00,,,0.00,VWS V13.01,2013-02-24 18:58:00,
2013-02-24 12:59:00,53.1,44.7,29.71,SE,129,0.0,0.0,73,0.00,,,0.00,VWS V13.01,2013-02-24 18:59:00,
2013-02-24 13:03:00,54.3,43.6,29.71,SE,129,0.0,0.0,67,0.00,,,0.00,VWS V13.01,2013-02-24 19:03:00,
2013-02-24 13:04:00,54.7,44.0,29.71,SE,129,0.0,0.0,67,0.00,,,0.00,VWS V13.01,2013-02-24 19:04:00,
2013-02-24 13:08:00,54.7,44.0,29.71,SE,129,0.0,0.0,67,0.00,,,0.00,VWS V13.01,2013-02-24 19:08:00,
2013-02-24 13:09:00,55.2,44.5,29.71,SE,129,0.0,0.0,67,0.00,,,0.00,VWS V13.01,2013-02-24 19:09:00,
2013-02-24 13:13:00,56.1,45.3,29.71,SE,129,0.0,0.0,67,0.00,,,0.00,VWS V13.01,2013-02-24 19:13:00,
2013-02-24 13:14:00,56.1,45.3,29.71,SE,129,0.0,0.0,67,0.00,,,0.00,VWS V13.01,2013-02-24 19:14:00,
2013-02-24 13:18:00,55.2,44.5,29.71,SE,129,0.0,0.0,67,0.00,,,0.00,VWS V13.01,2013-02-24 19:18:00,
2013-02-24 13:19:00,55.2,44.5,29.71,SE,129,0.0,0.0,67,0.00,,,0.00,VWS V13.01,2013-02-24 19:19:00,
2013-02-24 13:24:00,53.1,44.7,29.71,NE,44,3.1,3.1,73,0.00,,,0.00,VWS V13.01,2013-02-24 19:24:00,
2013-02-24 13:29:00,52.2,43.8,29.71,NE,51,4.9,4.9,73,0.00,,,0.00,VWS V13.01,2013-02-24 19:29:00,
2013-02-24 13:34:00,48.9,40.7,29.71,NE,53,2.7,2.7,73,0.00,,,0.00,VWS V13.01,2013-02-24 19:34:00,
2013-02-24 13:39:00,48.9,40.7,29.71,ENE,60,4.0,4.0,73,0.00,,,0.00,VWS V13.01,2013-02-24 19:39:00,
2013-02-24 13:44:00,49.3,41.0,29.71,NE,42,5.8,5.8,73,0.00,,,0.00,VWS V13.01,2013-02-24 19:44:00,
2013-02-24 13:45:00,48.9,40.7,29.71,NE,35,5.4,5.4,73,0.00,,,0.00,VWS V13.01,2013-02-24 19:45:00,
2013-02-24 13:49:00,48.0,41.8,29.71,NE,45,5.8,5.8,79,0.00,,,0.00,VWS V13.01,2013-02-24 19:49:00,
2013-02-24 13:50:00,48.2,40.0,29.71,ENE,72,5.8,5.8,73,0.00,,,0.00,VWS V13.01,2013-02-24 19:50:00,
2013-02-24 13:54:00,48.4,40.1,29.71,NE,46,4.0,4.0,73,0.00,,,0.00,VWS V13.01,2013-02-24 19:54:00,
2013-02-24 13:55:00,48.0,41.8,29.71,ENE,62,2.7,2.7,79,0.00,,,0.00,VWS V13.01,2013-02-24 19:55:00,
2013-02-24 13:59:00,48.0,41.8,29.71,ENE,65,4.9,4.9,79,0.00,,,0.00,VWS V13.01,2013-02-24 19:59:00,
2013-02-24 14:00:00,47.7,41.5,29.71,NE,44,4.9,4.9,79,0.00,,,0.00,VWS V13.01,2013-02-24 20:00:00,
2013-02-24 14:04:00,47.5,41.3,29.71,ENE,61,4.0,4.0,79,0.00,,,0.00,VWS V13.01,2013-02-24 20:04:00,
2013-02-24 14:05:00,47.1,41.0,29.71,ENE,62,4.9,4.9,79,0.00,,,0.00,VWS V13.01,2013-02-24 20:05:00,
2013-02-24 14:09:00,46.9,40.8,29.71,ENE,72,3.6,3.6,79,0.00,,,0.00,VWS V13.01,2013-02-24 20:09:00,
2013-02-24 14:10:00,47.1,41.0,29.71,East,85,4.9,4.9,79,0.00,,,0.00,VWS V13.01,2013-02-24 20:10:00,
2013-02-24 14:14:00,47.5,41.3,29.68,ENE,71,4.0,4.0,79,0.00,,,0.00,VWS V13.01,2013-02-24 20:14:00,
2013-02-24 14:15:00,47.1,41.0,29.68,ENE,72,3.1,3.1,79,0.00,,,0.00,VWS V13.01,2013-02-24 20:15:00,
2013-02-24 14:19:00,47.7,41.5,29.68,ENE,58,5.8,5.8,79,0.00,,,0.00,VWS V13.01,2013-02-24 20:19:00,
2013-02-24 14:20:00,48.4,40.1,29.68,NE,52,5.8,5.8,73,0.00,,,0.00,VWS V13.01,2013-02-24 20:20:00,
2013-02-24 14:24:00,47.3,41.1,29.68,ENE,78,3.6,3.6,79,0.00,,,0.00,VWS V13.01,2013-02-24 20:24:00,
2013-02-24 14:25:00,48.4,40.1,29.68,East,79,0.0,0.0,73,0.00,,,0.00,VWS V13.01,2013-02-24 20:25:00,
2013-02-24 14:29:00,48.2,40.0,29.68,ENE,62,3.6,3.6,73,0.00,,,0.00,VWS V13.01,2013-02-24 20:29:00,
2013-02-24 14:30:00,48.0,41.8,29.68,ENE,78,5.4,5.4,79,0.00,,,0.00,VWS V13.01,2013-02-24 20:30:00,
2013-02-24 14:34:00,46.6,40.4,29.68,ENE,70,4.9,4.9,79,0.00,,,0.00,VWS V13.01,2013-02-24 20:34:00,
2013-02-24 14:35:00,46.9,40.8,29.68,ENE,57,4.0,4.0,79,0.00,,,0.00,VWS V13.01,2013-02-24 20:35:00,
2013-02-24 14:39:00,47.1,41.0,29.68,ENE,57,5.8,5.8,79,0.00,,,0.00,VWS V13.01,2013-02-24 20:39:00,
2013-02-24 14:40:00,46.8,40.6,29.68,ENE,58,4.0,4.0,79,0.00,,,0.00,VWS V13.01,2013-02-24 20:40:00,
2013-02-24 14:44:00,46.4,40.2,29.68,ENE,66,5.4,5.4,79,0.00,,,0.00,VWS V13.01,2013-02-24 20:44:00,
2013-02-24 14:45:00,46.6,40.4,29.68,ENE,62,3.1,3.1,79,0.00,,,0.00,VWS V13.01,2013-02-24 20:45:00,
2013-02-24 14:49:00,46.8,40.6,29.68,NE,56,2.7,2.7,79,0.00,,,0.00,VWS V13.01,2013-02-24 20:49:00,
2013-02-24 14:50:00,46.8,40.6,29.68,NE,56,4.0,4.0,79,0.00,,,0.00,VWS V13.01,2013-02-24 20:50:00,
2013-02-24 14:54:00,46.6,40.4,29.68,NE,47,6.3,6.3,79,0.00,,,0.00,VWS V13.01,2013-02-24 20:54:00,
2013-02-24 14:55:00,46.6,40.4,29.68,NE,44,5.4,5.4,79,0.00,,,0.00,VWS V13.01,2013-02-24 20:55:00,
2013-02-24 14:59:00,45.9,39.7,29.68,NE,53,4.9,4.9,79,0.00,,,0.00,VWS V13.01,2013-02-24 20:59:00,
2013-02-24 15:00:00,45.7,39.5,29.68,NE,49,6.3,6.3,79,0.00,,,0.00,VWS V13.01,2013-02-24 21:00:00,
2013-02-24 15:05:00,46.4,40.2,29.68,NE,49,5.4,5.4,79,0.00,,,0.00,VWS V13.01,2013-02-24 21:05:00,
2013-02-24 15:06:00,46.6,40.4,29.68,NE,43,5.4,5.4,79,0.00,,,0.00,VWS V13.01,2013-02-24 21:06:00,
2013-02-24 15:10:00,46.2,40.1,29.68,NE,49,4.9,4.9,79,0.00,,,0.00,VWS V13.01,2013-02-24 21:10:00,
2013-02-24 15:11:00,46.4,40.2,29.68,NE,37,5.8,5.8,79,0.00,,,0.00,VWS V13.01,2013-02-24 21:11:00,
2013-02-24 15:15:00,47.1,41.0,29.68,ENE,70,5.8,5.8,79,0.00,,,0.00,VWS V13.01,2013-02-24 21:15:00,
2013-02-24 15:16:00,46.9,40.8,29.68,NE,47,6.3,6.3,79,0.00,,,0.00,VWS V13.01,2013-02-24 21:16:00,
2013-02-24 15:20:00,47.3,41.1,29.68,NE,36,6.3,6.3,79,0.00,,,0.00,VWS V13.01,2013-02-24 21:20:00,
2013-02-24 15:21:00,47.5,41.3,29.68,ENE,71,7.2,7.2,79,0.00,,,0.00,VWS V13.01,2013-02-24 21:21:00,
2013-02-24 15:25:00,47.5,41.3,29.68,NE,38,5.8,5.8,79,0.00,,,0.00,VWS V13.01,2013-02-24 21:25:00,
2013-02-24 15:26:00,46.9,40.8,29.68,NE,54,5.4,5.4,79,0.00,,,0.00,VWS V13.01,2013-02-24 21:26:00,
2013-02-24 15:30:00,46.4,40.2,29.68,NE,42,6.3,6.3,79,0.00,,,0.00,VWS V13.01,2013-02-24 21:30:00,
2013-02-24 15:31:00,46.4,40.2,29.68,NE,56,7.6,7.6,79,0.00,,,0.00,VWS V13.01,2013-02-24 21:31:00,
2013-02-24 15:35:00,45.5,39.4,29.68,ENE,71,5.4,5.4,79,0.00,,,0.00,VWS V13.01,2013-02-24 21:35:00,
2013-02-24 15:36:00,45.5,39.4,29.68,NNE,28,6.7,6.7,79,0.00,,,0.00,VWS V13.01,2013-02-24 21:36:00,
2013-02-24 15:40:00,44.2,40.0,29.68,ENE,63,5.8,5.8,85,0.00,,,0.00,VWS V13.01,2013-02-24 21:40:00,
2013-02-24 15:41:00,44.2,40.0,29.68,ENE,63,5.8,5.8,85,0.00,,,0.00,VWS V13.01,2013-02-24 21:41:00,
2013-02-24 15:45:00,45.3,39.2,29.68,NE,49,4.0,4.0,79,0.00,,,0.00,VWS V13.01,2013-02-24 21:45:00,
2013-02-24 15:46:00,45.0,38.8,29.68,NE,49,4.0,4.0,79,0.00,,,0.00,VWS V13.01,2013-02-24 21:46:00,
2013-02-24 15:51:00,43.7,39.5,29.68,ENE,66,5.4,5.4,85,0.00,,,0.00,VWS V13.01,2013-02-24 21:51:00,
2013-02-24 15:56:00,45.0,38.8,29.68,NNE,32,7.6,7.6,79,0.00,,,0.00,VWS V13.01,2013-02-24 21:56:00,
2013-02-24 16:01:00,44.8,38.7,29.65,ENE,58,6.3,6.3,79,0.00,,,0.00,VWS V13.01,2013-02-24 22:01:00,
2013-02-24 16:06:00,45.3,39.2,29.65,ENE,69,4.0,4.0,79,0.00,,,0.00,VWS V13.01,2013-02-24 22:06:00,
2013-02-24 16:07:00,45.5,39.4,29.65,NE,48,5.4,5.4,79,0.00,,,0.00,VWS V13.01,2013-02-24 22:07:00,
2013-02-24 16:11:00,45.5,39.4,29.65,NE,49,7.6,7.6,79,0.00,,,0.00,VWS V13.01,2013-02-24 22:11:00,
2013-02-24 16:12:00,45.3,39.2,29.65,NE,47,4.9,4.9,79,0.00,,,0.00,VWS V13.01,2013-02-24 22:12:00,
2013-02-24 16:16:00,45.1,39.0,29.65,NE,53,5.4,5.4,79,0.00,,,0.00,VWS V13.01,2013-02-24 22:16:00,
2013-02-24 16:17:00,45.0,38.8,29.65,NE,38,5.4,5.4,79,0.00,,,0.00,VWS V13.01,2013-02-24 22:17:00,
2013-02-24 16:21:00,43.5,39.3,29.65,NE,35,6.3,6.3,85,0.00,,,0.00,VWS V13.01,2013-02-24 22:21:00,
2013-02-24 16:22:00,43.3,39.1,29.65,NE,36,5.8,5.8,85,0.00,,,0.00,VWS V13.01,2013-02-24 22:22:00,
2013-02-24 16:26:00,42.8,38.6,29.65,NE,55,6.3,6.3,85,0.00,,,0.00,VWS V13.01,2013-02-24 22:26:00,
2013-02-24 16:27:00,42.8,38.6,29.65,NE,52,5.4,5.4,85,0.00,,,0.00,VWS V13.01,2013-02-24 22:27:00,
2013-02-24 16:31:00,42.4,38.3,29.65,NE,48,5.4,5.4,85,0.00,,,0.00,VWS V13.01,2013-02-24 22:31:00,
2013-02-24 16:32:00,42.4,38.3,29.65,NE,48,5.8,5.8,85,0.00,,,0.00,VWS V13.01,2013-02-24 22:32:00,
2013-02-24 16:36:00,41.9,37.7,29.65,NE,53,6.3,6.3,85,0.00,,,0.00,VWS V13.01,2013-02-24 22:36:00,
2013-02-24 16:38:00,41.9,37.7,29.65,NE,52,5.8,5.8,85,0.00,,,0.00,VWS V13.01,2013-02-24 22:38:00,
2013-02-24 16:41:00,41.9,37.7,29.65,NE,55,5.4,5.4,85,0.00,,,0.00,VWS V13.01,2013-02-24 22:41:00,
2013-02-24 16:43:00,41.9,37.7,29.65,NE,34,5.8,5.8,85,0.00,,,0.00,VWS V13.01,2013-02-24 22:43:00,
2013-02-24 16:46:00,42.1,37.9,29.65,NE,52,9.2,9.2,85,0.00,,,0.00,VWS V13.01,2013-02-24 22:46:00,
2013-02-24 16:48:00,42.1,37.9,29.65,NNE,31,5.4,5.4,85,0.00,,,0.00,VWS V13.01,2013-02-24 22:48:00,
2013-02-24 16:52:00,42.3,38.1,29.65,NE,45,4.0,4.0,85,0.00,,,0.00,VWS V13.01,2013-02-24 22:52:00,
2013-02-24 16:53:00,42.1,37.9,29.65,NE,34,6.3,6.3,85,0.00,,,0.00,VWS V13.01,2013-02-24 22:53:00,
2013-02-24 16:54:00,42.1,37.9,29.65,NE,34,6.3,6.3,85,0.00,,,0.00,VWS V13.01,2013-02-24 22:54:00,
2013-02-24 16:55:00,42.1,37.9,29.65,NE,49,8.1,8.1,85,0.00,,,0.00,VWS V13.01,2013-02-24 22:55:00,
2013-02-24 16:57:00,42.3,38.1,29.65,NE,34,7.6,7.6,85,0.00,,,0.00,VWS V13.01,2013-02-24 22:57:00,
2013-02-24 16:58:00,42.3,38.1,29.65,East,82,5.8,5.8,85,0.00,,,0.00,VWS V13.01,2013-02-24 22:58:00,
2013-02-24 16:59:00,42.3,38.1,29.65,NE,45,6.3,6.3,85,0.00,,,0.00,VWS V13.01,2013-02-24 22:59:00,
2013-02-24 17:00:00,42.3,38.1,29.65,NE,38,6.3,6.3,85,0.00,,,0.00,VWS V13.01,2013-02-24 23:00:00,
2013-02-24 17:02:00,42.3,38.1,29.65,NE,42,6.3,6.3,85,0.00,,,0.00,VWS V13.01,2013-02-24 23:02:00,
2013-02-24 17:03:00,42.3,38.1,29.65,NE,43,8.1,8.1,85,0.00,,,0.00,VWS V13.01,2013-02-24 23:03:00,
2013-02-24 17:05:00,42.1,37.9,29.65,ENE,60,8.1,8.1,85,0.00,,,0.00,VWS V13.01,2013-02-24 23:05:00,
2013-02-24 17:07:00,42.1,37.9,29.65,NE,37,6.3,6.3,85,0.00,,,0.00,VWS V13.01,2013-02-24 23:07:00,
2013-02-24 17:09:00,41.9,37.7,29.65,NE,44,8.3,8.3,85,0.00,,,0.00,VWS V13.01,2013-02-24 23:09:00,
2013-02-24 17:10:00,41.9,37.7,29.65,NNE,30,6.3,6.3,85,0.00,,,0.00,VWS V13.01,2013-02-24 23:10:00,
2013-02-24 17:12:00,41.5,37.4,29.68,NE,53,6.3,6.3,85,0.00,,,0.00,VWS V13.01,2013-02-24 23:12:00,
2013-02-24 17:14:00,41.5,37.4,29.68,NE,44,3.6,3.6,85,0.00,,,0.00,VWS V13.01,2013-02-24 23:14:00,
2013-02-24 17:15:00,41.5,37.4,29.68,NE,34,4.9,4.9,85,0.00,,,0.00,VWS V13.01,2013-02-24 23:15:00,
2013-02-24 17:17:00,41.5,37.4,29.68,NE,46,6.3,6.3,85,0.00,,,0.00,VWS V13.01,2013-02-24 23:17:00,
2013-02-24 17:19:00,41.7,37.5,29.68,NE,43,7.6,7.6,85,0.00,,,0.00,VWS V13.01,2013-02-24 23:19:00,
2013-02-24 17:20:00,41.7,37.5,29.68,NE,43,5.8,5.8,85,0.00,,,0.00,VWS V13.01,2013-02-24 23:20:00,
2013-02-24 17:22:00,41.5,37.4,29.68,NE,38,8.1,8.1,85,0.00,,,0.00,VWS V13.01,2013-02-24 23:22:00,
2013-02-24 17:24:00,41.5,37.4,29.68,NE,49,8.3,8.3,85,0.00,,,0.00,VWS V13.01,2013-02-24 23:24:00,
2013-02-24 17:25:00,41.7,37.5,29.68,NE,51,8.7,8.7,85,0.00,,,0.00,VWS V13.01,2013-02-24 23:25:00,
2013-02-24 17:27:00,41.5,37.4,29.65,NE,47,6.3,6.3,85,0.00,,,0.00,VWS V13.01,2013-02-24 23:27:00,
2013-02-24 17:29:00,41.2,37.0,29.65,NE,41,5.8,5.8,85,0.00,,,0.00,VWS V13.01,2013-02-24 23:29:00,
2013-02-24 17:30:00,41.2,37.0,29.65,ENE,75,6.3,6.3,85,0.00,,,0.00,VWS V13.01,2013-02-24 23:30:00,
2013-02-24 17:33:00,40.8,36.7,29.65,ENE,72,7.6,7.6,85,0.00,,,0.00,VWS V13.01,2013-02-24 23:33:00,
2013-02-24 17:34:00,40.8,36.7,29.65,NE,40,5.8,5.8,85,0.00,,,0.00,VWS V13.01,2013-02-24 23:34:00,
2013-02-24 17:35:00,40.6,36.5,29.65,NE,40,5.8,5.8,85,0.00,,,0.00,VWS V13.01,2013-02-24 23:35:00,
2013-02-24 17:38:00,40.5,36.3,29.65,NE,38,6.3,6.3,85,0.00,,,0.00,VWS V13.01,2013-02-24 23:38:00,
2013-02-24 17:39:00,40.5,36.3,29.65,NE,47,5.4,5.4,85,0.00,,,0.00,VWS V13.01,2013-02-24 23:39:00,
2013-02-24 17:40:00,40.5,36.3,29.65,NE,51,5.4,5.4,85,0.00,,,0.00,VWS V13.01,2013-02-24 23:40:00,
2013-02-24 17:43:00,39.7,35.6,29.65,NE,38,5.8,5.8,85,0.00,,,0.00,VWS V13.01,2013-02-24 23:43:00,
2013-02-24 17:44:00,39.7,35.6,29.65,NE,47,6.7,6.7,85,0.00,,,0.00,VWS V13.01,2013-02-24 23:44:00,
2013-02-24 17:45:00,39.7,35.6,29.65,ENE,71,5.8,5.8,85,0.00,,,0.00,VWS V13.01,2013-02-24 23:45:00,
2013-02-24 17:48:00,39.4,35.2,29.65,ENE,65,5.4,5.4,85,0.00,,,0.00,VWS V13.01,2013-02-24 23:48:00,
2013-02-24 17:49:00,39.4,35.2,29.65,ENE,61,3.6,3.6,85,0.00,,,0.00,VWS V13.01,2013-02-24 23:49:00,
2013-02-24 17:50:00,39.4,35.2,29.65,NE,44,4.0,4.0,85,0.00,,,0.00,VWS V13.01,2013-02-24 23:50:00,
2013-02-24 17:53:00,39.0,36.6,29.65,NE,44,7.6,7.6,91,0.00,,,0.00,VWS V13.01,2013-02-24 23:53:00,
2013-02-24 17:54:00,39.0,36.6,29.65,NE,54,3.6,3.6,91,0.00,,,0.00,VWS V13.01,2013-02-24 23:54:00,
2013-02-24 17:56:00,39.0,36.6,29.65,NE,53,3.6,3.6,91,0.00,,,0.00,VWS V13.01,2013-02-24 23:56:00,
2013-02-24 17:58:00,38.8,36.4,29.65,NE,46,3.6,3.6,91,0.00,,,0.00,VWS V13.01,2013-02-24 23:58:00,
2013-02-24 17:59:00,38.8,36.4,29.65,NE,48,4.9,4.9,91,0.00,,,0.00,VWS V13.01,2013-02-24 23:59:00,
2013-02-24 18:02:00,38.7,36.3,29.65,NE,48,2.7,2.7,91,0.00,,,0.00,VWS V13.01,2013-02-25 00:02:00,
2013-02-24 18:04:00,38.5,36.1,29.65,ENE,75,6.3,6.3,91,0.00,,,0.00,VWS V13.01,2013-02-25 00:04:00,
2013-02-24 18:05:00,38.5,36.1,29.65,ENE,63,4.0,4.0,91,0.00,,,0.00,VWS V13.01,2013-02-25 00:05:00,
2013-02-24 18:07:00,38.5,36.1,29.65,NE,41,3.6,3.6,91,0.00,,,0.00,VWS V13.01,2013-02-25 00:07:00,
2013-02-24 18:09:00,38.1,35.7,29.65,NE,41,4.9,4.9,91,0.00,,,0.00,VWS V13.01,2013-02-25 00:09:00,
2013-02-24 18:10:00,38.1,35.7,29.65,NE,41,3.1,3.1,91,0.00,,,0.00,VWS V13.01,2013-02-25 00:10:00,
2013-02-24 18:12:00,38.1,35.7,29.68,NE,50,2.7,2.7,91,0.00,,,0.00,VWS V13.01,2013-02-25 00:12:00,
2013-02-24 18:14:00,37.9,35.5,29.68,NE,50,3.6,3.6,91,0.00,,,0.00,VWS V13.01,2013-02-25 00:14:00,
2013-02-24 18:15:00,37.9,35.5,29.68,NE,50,3.1,3.1,91,0.00,,,0.00,VWS V13.01,2013-02-25 00:15:00,
2013-02-24 18:17:00,37.8,35.4,29.68,NE,45,4.0,4.0,91,0.00,,,0.00,VWS V13.01,2013-02-25 00:17:00,
2013-02-24 18:19:00,37.8,35.4,29.68,NE,51,4.0,4.0,91,0.00,,,0.00,VWS V13.01,2013-02-25 00:19:00,
2013-02-24 18:20:00,37.8,35.4,29.68,NE,50,4.9,4.9,91,0.00,,,0.00,VWS V13.01,2013-02-25 00:20:00,
2013-02-24 18:22:00,37.6,35.2,29.68,NE,48,4.0,4.0,91,0.00,,,0.00,VWS V13.01,2013-02-25 00:22:00,
2013-02-24 18:24:00,37.4,35.0,29.68,NE,47,4.0,4.0,91,0.00,,,0.00,VWS V13.01,2013-02-25 00:24:00,
2013-02-24 18:25:00,37.4,35.0,29.68,NE,46,4.0,4.0,91,0.00,,,0.00,VWS V13.01,2013-02-25 00:25:00,
2013-02-24 18:27:00,37.4,35.0,29.68,NE,50,3.6,3.6,91,0.00,,,0.00,VWS V13.01,2013-02-25 00:27:00,
2013-02-24 18:29:00,37.4,35.0,29.68,NE,49,4.0,4.0,91,0.00,,,0.00,VWS V13.01,2013-02-25 00:29:00,
2013-02-24 18:30:00,37.4,35.0,29.68,NE,49,4.0,4.0,91,0.00,,,0.00,VWS V13.01,2013-02-25 00:30:00,
2013-02-24 18:32:00,37.4,35.0,29.68,NE,51,4.0,4.0,91,0.00,,,0.00,VWS V13.01,2013-02-25 00:32:00,
2013-02-24 18:34:00,37.4,35.0,29.68,NE,49,3.6,3.6,91,0.00,,,0.00,VWS V13.01,2013-02-25 00:34:00,
2013-02-24 18:35:00,37.4,35.0,29.68,NE,49,4.0,4.0,91,0.00,,,0.00,VWS V13.01,2013-02-25 00:35:00,
2013-02-24 18:37:00,37.2,34.8,29.68,NE,50,4.0,4.0,91,0.00,,,0.00,VWS V13.01,2013-02-25 00:37:00,
2013-02-24 18:39:00,37.2,34.8,29.68,NE,36,4.9,4.9,91,0.00,,,0.00,VWS V13.01,2013-02-25 00:39:00,
2013-02-24 18:40:00,37.2,34.8,29.68,ENE,58,5.8,5.8,91,0.00,,,0.00,VWS V13.01,2013-02-25 00:40:00,
2013-02-24 18:42:00,37.2,34.8,29.68,NE,48,4.0,4.0,91,0.00,,,0.00,VWS V13.01,2013-02-25 00:42:00,
2013-02-24 18:45:00,37.2,34.8,29.68,NE,49,3.1,3.1,91,0.00,,,0.00,VWS V13.01,2013-02-25 00:45:00,
2013-02-24 18:46:00,37.2,34.8,29.68,NE,48,3.6,3.6,91,0.00,,,0.00,VWS V13.01,2013-02-25 00:46:00,
2013-02-24 18:47:00,37.0,34.7,29.68,NE,52,2.7,2.7,91,0.00,,,0.00,VWS V13.01,2013-02-25 00:47:00,
2013-02-24 18:50:00,36.9,34.5,29.68,ENE,60,4.0,4.0,91,0.00,,,0.00,VWS V13.01,2013-02-25 00:50:00,
2013-02-24 18:51:00,36.9,34.5,29.68,ENE,75,4.0,4.0,91,0.00,,,0.00,VWS V13.01,2013-02-25 00:51:00,
2013-02-24 18:52:00,36.9,34.5,29.68,ENE,58,3.6,3.6,91,0.00,,,0.00,VWS V13.01,2013-02-25 00:52:00,
2013-02-24 18:55:00,36.7,34.3,29.68,NE,44,3.1,3.1,91,0.00,,,0.00,VWS V13.01,2013-02-25 00:55:00,
2013-02-24 18:56:00,36.7,34.3,29.68,NE,51,4.9,4.9,91,0.00,,,0.00,VWS V13.01,2013-02-25 00:56:00,
2013-02-24 18:57:00,36.9,34.5,29.68,ENE,63,5.8,5.8,91,0.00,,,0.00,VWS V13.01,2013-02-25 00:57:00,
2013-02-24 19:00:00,36.7,34.3,29.68,ENE,57,5.8,5.8,91,0.00,,,0.00,VWS V13.01,2013-02-25 01:00:00,
2013-02-24 19:01:00,36.7,34.3,29.68,East,87,3.1,3.1,91,0.00,,,0.00,VWS V13.01,2013-02-25 01:01:00,
2013-02-24 19:02:00,36.7,34.3,29.68,NE,52,5.4,5.4,91,0.00,,,0.00,VWS V13.01,2013-02-25 01:02:00,
2013-02-24 19:05:00,36.3,34.0,29.68,NE,51,4.0,4.0,91,0.00,,,0.00,VWS V13.01,2013-02-25 01:05:00,
2013-02-24 19:06:00,36.3,34.0,29.68,NE,52,3.6,3.6,91,0.00,,,0.00,VWS V13.01,2013-02-25 01:06:00,
2013-02-24 19:07:00,36.3,34.0,29.68,NE,55,5.4,5.4,91,0.00,,,0.00,VWS V13.01,2013-02-25 01:07:00,
2013-02-24 19:10:00,36.7,34.3,29.68,ENE,68,3.6,3.6,91,0.00,,,0.00,VWS V13.01,2013-02-25 01:10:00,
2013-02-24 19:11:00,36.7,34.3,29.68,NE,54,4.0,4.0,91,0.00,,,0.00,VWS V13.01,2013-02-25 01:11:00,
2013-02-24 19:12:00,36.7,34.3,29.68,ENE,75,4.9,4.9,91,0.00,,,0.00,VWS V13.01,2013-02-25 01:12:00,
2013-02-24 19:15:00,36.3,34.0,29.68,ENE,58,4.9,4.9,91,0.00,,,0.00,VWS V13.01,2013-02-25 01:15:00,
2013-02-24 19:16:00,36.3,34.0,29.68,NE,38,3.1,3.1,91,0.00,,,0.00,VWS V13.01,2013-02-25 01:16:00,
2013-02-24 19:18:00,36.5,34.1,29.68,NE,49,5.4,5.4,91,0.00,,,0.00,VWS V13.01,2013-02-25 01:18:00,
2013-02-24 19:20:00,36.5,34.1,29.68,NE,51,5.4,5.4,91,0.00,,,0.00,VWS V13.01,2013-02-25 01:20:00,
2013-02-24 19:21:00,36.7,34.3,29.68,NE,45,4.9,4.9,91,0.00,,,0.00,VWS V13.01,2013-02-25 01:21:00,
2013-02-24 19:23:00,36.7,34.3,29.68,NE,50,4.0,4.0,91,0.00,,,0.00,VWS V13.01,2013-02-25 01:23:00,
2013-02-24 19:25:00,36.7,34.3,29.68,NE,55,5.4,5.4,91,0.00,,,0.00,VWS V13.01,2013-02-25 01:25:00,
2013-02-24 19:26:00,36.7,34.3,29.68,NE,55,5.4,5.4,91,0.00,,,0.00,VWS V13.01,2013-02-25 01:26:00,
2013-02-24 19:28:00,36.5,34.1,29.65,NE,46,5.8,5.8,91,0.00,,,0.00,VWS V13.01,2013-02-25 01:28:00,
2013-02-24 19:30:00,36.5,34.1,29.65,NE,52,4.9,4.9,91,0.00,,,0.00,VWS V13.01,2013-02-25 01:30:00,
2013-02-24 19:31:00,36.5,34.1,29.65,NE,37,4.0,4.0,91,0.00,,,0.00,VWS V13.01,2013-02-25 01:31:00,
2013-02-24 19:33:00,36.5,34.1,29.65,NE,42,4.9,4.9,91,0.00,,,0.00,VWS V13.01,2013-02-25 01:33:00,
2013-02-24 19:35:00,36.1,33.8,29.65,NE,42,3.6,3.6,91,0.00,,,0.00,VWS V13.01,2013-02-25 01:35:00,
2013-02-24 19:36:00,36.1,33.8,29.65,NE,42,3.6,3.6,91,0.00,,,0.00,VWS V13.01,2013-02-25 01:36:00,
2013-02-24 19:38:00,35.8,29.9,29.65,NE,42,3.6,3.6,79,0.00,,,0.00,VWS V13.01,2013-02-25 01:38:00,
2013-02-24 19:40:00,35.6,29.7,29.65,NE,42,4.0,4.0,79,0.00,,,0.00,VWS V13.01,2013-02-25 01:40:00,
2013-02-24 19:41:00,35.6,29.7,29.65,NE,42,4.0,4.0,79,0.00,,,0.00,VWS V13.01,2013-02-25 01:41:00,
2013-02-24 19:43:00,35.8,29.9,29.65,NE,42,3.6,3.6,79,0.00,,,0.00,VWS V13.01,2013-02-25 01:43:00,
2013-02-24 19:45:00,35.8,29.9,29.65,NE,42,5.4,5.4,79,0.00,,,0.00,VWS V13.01,2013-02-25 01:45:00,
2013-02-24 19:46:00,35.8,29.9,29.65,NE,42,4.9,4.9,79,0.00,,,0.00,VWS V13.01,2013-02-25 01:46:00,
2013-02-24 19:48:00,36.0,30.1,29.65,NE,42,3.1,3.1,79,0.00,,,0.00,VWS V13.01,2013-02-25 01:48:00,
2013-02-24 19:50:00,35.8,29.9,29.65,NE,42,5.8,5.8,79,0.00,,,0.00,VWS V13.01,2013-02-25 01:50:00,
2013-02-24 19:51:00,35.8,29.9,29.65,NE,42,5.4,5.4,79,0.00,,,0.00,VWS V13.01,2013-02-25 01:51:00,
2013-02-24 19:53:00,36.0,30.1,29.65,NE,37,4.5,4.5,79,0.00,,,0.00,VWS V13.01,2013-02-25 01:53:00,
2013-02-24 19:55:00,36.0,30.1,29.65,NE,38,3.6,3.6,79,0.00,,,0.00,VWS V13.01,2013-02-25 01:55:00,
2013-02-24 19:56:00,36.0,30.1,29.65,NE,38,4.0,4.0,79,0.00,,,0.00,VWS V13.01,2013-02-25 01:56:00,
2013-02-24 19:58:00,35.8,29.9,29.65,NE,37,4.9,4.9,79,0.00,,,0.00,VWS V13.01,2013-02-25 01:58:00,
2013-02-24 20:00:00,35.8,29.9,29.65,NE,38,3.1,3.1,79,0.00,,,0.00,VWS V13.01,2013-02-25 02:00:00,
2013-02-24 20:01:00,36.0,30.1,29.65,NE,38,2.7,2.7,79,0.00,,,0.00,VWS V13.01,2013-02-25 02:01:00,
2013-02-24 20:05:00,35.4,29.6,29.65,NE,38,5.4,5.4,79,0.00,,,0.00,VWS V13.01,2013-02-25 02:05:00,
2013-02-24 20:06:00,35.6,29.7,29.65,NE,38,2.7,2.7,79,0.00,,,0.00,VWS V13.01,2013-02-25 02:06:00,
2013-02-24 20:10:00,35.4,29.6,29.65,NE,39,5.4,5.4,79,0.00,,,0.00,VWS V13.01,2013-02-25 02:10:00,
2013-02-24 20:11:00,35.4,29.6,29.65,NE,37,4.9,4.9,79,0.00,,,0.00,VWS V13.01,2013-02-25 02:11:00,
2013-02-24 20:15:00,35.6,29.7,29.65,NE,36,5.4,5.4,79,0.00,,,0.00,VWS V13.01,2013-02-25 02:15:00,
2013-02-24 20:17:00,35.6,29.7,29.65,NE,42,4.0,4.0,79,0.00,,,0.00,VWS V13.01,2013-02-25 02:17:00,
2013-02-24 20:18:00,35.6,29.7,29.65,NE,42,4.9,4.9,79,0.00,,,0.00,VWS V13.01,2013-02-25 02:18:00,
2013-02-24 20:20:00,35.4,29.6,29.65,NE,40,4.0,4.0,79,0.00,,,0.00,VWS V13.01,2013-02-25 02:20:00,
2013-02-24 20:24:00,35.4,29.6,29.65,NE,39,5.8,5.8,79,0.00,,,0.00,VWS V13.01,2013-02-25 02:24:00,
2013-02-24 20:26:00,35.4,29.6,29.65,NE,43,6.3,6.3,79,0.00,,,0.00,VWS V13.01,2013-02-25 02:26:00,
2013-02-24 20:29:00,35.4,29.6,29.65,NE,37,4.9,4.9,79,0.00,,,0.00,VWS V13.01,2013-02-25 02:29:00,
2013-02-24 20:30:00,35.4,29.6,29.65,NE,37,4.0,4.0,79,0.00,,,0.00,VWS V13.01,2013-02-25 02:30:00,
2013-02-24 20:32:00,35.4,29.6,29.65,NE,39,4.0,4.0,79,0.00,,,0.00,VWS V13.01,2013-02-25 02:32:00,
2013-02-24 20:34:00,35.2,29.4,29.65,NNE,33,6.3,6.3,79,0.00,,,0.00,VWS V13.01,2013-02-25 02:34:00,
2013-02-24 20:35:00,35.4,29.6,29.65,NNE,32,4.0,4.0,79,0.00,,,0.00,VWS V13.01,2013-02-25 02:35:00,
2013-02-24 20:37:00,35.4,29.6,29.65,NE,35,3.6,3.6,79,0.00,,,0.00,VWS V13.01,2013-02-25 02:37:00,
2013-02-24 20:39:00,35.4,29.6,29.65,NE,36,4.0,4.0,79,0.00,,,0.00,VWS V13.01,2013-02-25 02:39:00,
2013-02-24 20:40:00,35.4,29.6,29.65,NNE,31,3.1,3.1,79,0.00,,,0.00,VWS V13.01,2013-02-25 02:40:00,
2013-02-24 20:42:00,35.4,29.6,29.65,NNE,31,3.6,3.6,79,0.00,,,0.00,VWS V13.01,2013-02-25 02:42:00,
2013-02-24 20:43:00,35.2,29.4,29.65,NNE,31,4.0,4.0,79,0.00,,,0.00,VWS V13.01,2013-02-25 02:43:00,
2013-02-24 20:44:00,35.2,29.4,29.65,NNE,31,3.1,3.1,79,0.00,,,0.00,VWS V13.01,2013-02-25 02:44:00,
2013-02-24 20:46:00,35.2,29.4,29.65,NNE,31,3.1,3.1,79,0.00,,,0.00,VWS V13.01,2013-02-25 02:46:00,
2013-02-24 20:48:00,35.1,29.2,29.65,NNE,31,4.0,4.0,79,0.00,,,0.00,VWS V13.01,2013-02-25 02:48:00,
2013-02-24 20:49:00,35.1,29.2,29.65,NNE,31,3.6,3.6,79,0.00,,,0.00,VWS V13.01,2013-02-25 02:49:00,
2013-02-24 20:51:00,35.1,29.2,29.65,NNE,31,4.0,4.0,79,0.00,,,0.00,VWS V13.01,2013-02-25 02:51:00,
2013-02-24 20:53:00,35.1,29.2,29.65,NNE,32,3.6,3.6,79,0.00,,,0.00,VWS V13.01,2013-02-25 02:53:00,
2013-02-24 20:54:00,35.1,29.2,29.65,NNE,32,4.0,4.0,79,0.00,,,0.00,VWS V13.01,2013-02-25 02:54:00,
2013-02-24 20:55:00,35.1,29.2,29.65,NNE,32,2.7,2.7,79,0.00,,,0.00,VWS V13.01,2013-02-25 02:55:00,
2013-02-24 20:57:00,35.1,29.2,29.65,NE,41,4.5,4.5,79,0.00,,,0.00,VWS V13.01,2013-02-25 02:57:00,
2013-02-24 20:59:00,35.1,29.2,29.65,NE,42,4.9,4.9,79,0.00,,,0.00,VWS V13.01,2013-02-25 02:59:00,
2013-02-24 21:00:00,35.1,29.2,29.65,NE,42,3.1,3.1,79,0.00,,,0.00,VWS V13.01,2013-02-25 03:00:00,
2013-02-24 21:04:00,35.1,29.2,29.65,NE,36,4.0,4.0,79,0.00,,,0.00,VWS V13.01,2013-02-25 03:04:00,
2013-02-24 21:05:00,35.1,29.2,29.65,NE,34,4.9,4.9,79,0.00,,,0.00,VWS V13.01,2013-02-25 03:05:00,
2013-02-24 21:09:00,35.4,29.6,29.65,NE,43,5.4,5.4,79,0.00,,,0.00,VWS V13.01,2013-02-25 03:09:00,
2013-02-24 21:10:00,35.4,29.6,29.65,NNE,32,5.4,5.4,79,0.00,,,0.00,VWS V13.01,2013-02-25 03:10:00,
2013-02-24 21:14:00,35.4,29.6,29.65,NE,45,3.6,3.6,79,0.00,,,0.00,VWS V13.01,2013-02-25 03:14:00,
2013-02-24 21:15:00,35.4,29.6,29.65,NNE,28,5.4,5.4,79,0.00,,,0.00,VWS V13.01,2013-02-25 03:15:00,
2013-02-24 21:16:00,35.4,29.6,29.65,NNE,32,4.0,4.0,79,0.00,,,0.00,VWS V13.01,2013-02-25 03:16:00,
2013-02-24 21:19:00,35.2,29.4,29.65,NE,49,4.0,4.0,79,0.00,,,0.00,VWS V13.01,2013-02-25 03:19:00,
2013-02-24 21:21:00,35.1,29.2,29.65,NE,37,5.4,5.4,79,0.00,,,0.00,VWS V13.01,2013-02-25 03:21:00,
2013-02-24 21:24:00,34.9,29.0,29.65,NE,35,4.5,4.5,79,0.00,,,0.00,VWS V13.01,2013-02-25 03:24:00,
2013-02-24 21:26:00,34.7,28.9,29.65,NNE,33,5.8,5.8,79,0.00,,,0.00,VWS V13.01,2013-02-25 03:26:00,
2013-02-24 21:29:00,34.9,29.0,29.65,NNE,30,3.1,3.1,79,0.00,,,0.00,VWS V13.01,2013-02-25 03:29:00,
2013-02-24 21:31:00,34.5,28.7,29.65,NE,40,5.8,5.8,79,0.00,,,0.00,VWS V13.01,2013-02-25 03:31:00,
2013-02-24 21:34:00,34.5,28.7,29.65,NE,42,4.0,4.0,79,0.00,,,0.00,VWS V13.01,2013-02-25 03:34:00,
2013-02-24 21:36:00,34.7,28.9,29.65,NE,37,3.6,3.6,79,0.00,,,0.00,VWS V13.01,2013-02-25 03:36:00,
2013-02-24 21:37:00,34.7,28.9,29.65,NE,34,3.1,3.1,79,0.00,,,0.00,VWS V13.01,2013-02-25 03:37:00,
2013-02-24 21:38:00,34.7,28.9,29.65,NE,36,6.3,6.3,79,0.00,,,0.00,VWS V13.01,2013-02-25 03:38:00,
2013-02-24 21:39:00,34.7,28.9,29.65,NE,43,4.9,4.9,79,0.00,,,0.00,VWS V13.01,2013-02-25 03:39:00,
2013-02-24 21:42:00,34.7,28.9,29.65,NE,39,5.4,5.4,79,0.00,,,0.00,VWS V13.01,2013-02-25 03:42:00,
2013-02-24 21:43:00,34.9,29.0,29.65,NNE,32,5.4,5.4,79,0.00,,,0.00,VWS V13.01,2013-02-25 03:43:00,
2013-02-24 21:44:00,34.9,29.0,29.65,NNE,33,5.8,5.8,79,0.00,,,0.00,VWS V13.01,2013-02-25 03:44:00,
2013-02-24 21:47:00,34.9,29.0,29.65,NE,48,6.7,6.7,79,0.00,,,0.00,VWS V13.01,2013-02-25 03:47:00,
2013-02-24 21:48:00,34.9,29.0,29.65,NNE,32,5.4,5.4,79,0.00,,,0.00,VWS V13.01,2013-02-25 03:48:00,
2013-02-24 21:49:00,34.9,29.0,29.65,NE,39,5.4,5.4,79,0.00,,,0.00,VWS V13.01,2013-02-25 03:49:00,
2013-02-24 21:52:00,35.1,29.2,29.65,NE,40,6.3,6.3,79,0.00,,,0.00,VWS V13.01,2013-02-25 03:52:00,
2013-02-24 21:53:00,35.1,29.2,29.65,NE,43,5.4,5.4,79,0.00,,,0.00,VWS V13.01,2013-02-25 03:53:00,
2013-02-24 21:54:00,35.1,29.2,29.65,NE,43,5.4,5.4,79,0.00,,,0.00,VWS V13.01,2013-02-25 03:54:00,
2013-02-24 21:57:00,35.2,29.4,29.65,NE,34,3.6,3.6,79,0.00,,,0.00,VWS V13.01,2013-02-25 03:57:00,
2013-02-24 22:01:00,35.1,29.2,29.65,NE,42,4.0,4.0,79,0.00,,,0.00,VWS V13.01,2013-02-25 04:01:00,
2013-02-24 22:02:00,35.1,29.2,29.65,NE,43,5.4,5.4,79,0.00,,,0.00,VWS V13.01,2013-02-25 04:02:00,
2013-02-24 22:03:00,35.1,29.2,29.65,NE,43,4.0,4.0,79,0.00,,,0.00,VWS V13.01,2013-02-25 04:03:00,
2013-02-24 22:06:00,35.1,29.2,29.65,NE,38,4.0,4.0,79,0.00,,,0.00,VWS V13.01,2013-02-25 04:06:00,
2013-02-24 22:07:00,35.1,29.2,29.65,NE,38,5.4,5.4,79,0.00,,,0.00,VWS V13.01,2013-02-25 04:07:00,
2013-02-24 22:08:00,35.1,29.2,29.65,NE,38,3.1,3.1,79,0.00,,,0.00,VWS V13.01,2013-02-25 04:08:00,
2013-02-24 22:11:00,35.2,29.4,29.65,NE,38,0.0,0.0,79,0.00,,,0.00,VWS V13.01,2013-02-25 04:11:00,
2013-02-24 22:12:00,35.2,29.4,29.65,NE,38,0.0,0.0,79,0.00,,,0.00,VWS V13.01,2013-02-25 04:12:00,
2013-02-24 22:13:00,35.4,29.6,29.65,NE,38,0.0,0.0,79,0.00,,,0.00,VWS V13.01,2013-02-25 04:13:00,
2013-02-24 22:17:00,35.2,29.4,29.65,NE,38,0.0,0.0,79,0.00,,,0.00,VWS V13.01,2013-02-25 04:17:00,
2013-02-24 22:18:00,35.2,29.4,29.65,NE,38,0.0,0.0,79,0.00,,,0.00,VWS V13.01,2013-02-25 04:18:00,
2013-02-24 22:20:00,35.2,29.4,29.65,NE,38,0.0,0.0,79,0.00,,,0.00,VWS V13.01,2013-02-25 04:20:00,
2013-02-24 22:22:00,35.2,29.4,29.65,NE,38,0.0,0.0,79,0.00,,,0.00,VWS V13.01,2013-02-25 04:22:00,
2013-02-24 22:23:00,35.2,29.4,29.65,NE,38,0.0,0.0,79,0.00,,,0.00,VWS V13.01,2013-02-25 04:23:00,
2013-02-24 22:26:00,35.2,29.4,29.65,NE,38,0.0,0.0,79,0.00,,,0.00,VWS V13.01,2013-02-25 04:26:00,
2013-02-24 22:27:00,35.1,29.2,29.68,NE,38,0.0,0.0,79,0.00,,,0.00,VWS V13.01,2013-02-25 04:27:00,
2013-02-24 22:28:00,35.1,29.2,29.68,NE,38,0.0,0.0,79,0.00,,,0.00,VWS V13.01,2013-02-25 04:28:00,
2013-02-24 22:32:00,34.9,29.0,29.68,NE,38,0.0,0.0,79,0.00,,,0.00,VWS V13.01,2013-02-25 04:32:00,
2013-02-24 22:33:00,34.9,29.0,29.68,NE,38,0.0,0.0,79,0.00,,,0.00,VWS V13.01,2013-02-25 04:33:00,
2013-02-24 22:37:00,34.7,28.9,29.68,NE,38,0.0,0.0,79,0.00,,,0.00,VWS V13.01,2013-02-25 04:37:00,
2013-02-24 22:38:00,34.7,28.9,29.68,NE,38,3.6,3.6,79,0.00,,,0.00,VWS V13.01,2013-02-25 04:38:00,
2013-02-24 22:42:00,34.5,28.7,29.68,NE,38,0.0,0.0,79,0.00,,,0.00,VWS V13.01,2013-02-25 04:42:00,
2013-02-24 22:43:00,34.7,28.9,29.68,NE,38,0.0,0.0,79,0.00,,,0.00,VWS V13.01,2013-02-25 04:43:00,
2013-02-24 22:47:00,34.5,28.7,29.68,NE,38,3.1,3.1,79,0.00,,,0.00,VWS V13.01,2013-02-25 04:47:00,
2013-02-24 22:48:00,34.5,28.7,29.68,NE,38,3.6,3.6,79,0.00,,,0.00,VWS V13.01,2013-02-25 04:48:00,
2013-02-24 22:49:00,34.7,28.9,29.68,NE,38,5.4,5.4,79,0.00,,,0.00,VWS V13.01,2013-02-25 04:49:00,
2013-02-24 22:50:00,34.7,28.9,29.68,NE,38,5.4,5.4,79,0.00,,,0.00,VWS V13.01,2013-02-25 04:50:00,
2013-02-24 22:52:00,34.7,28.9,29.68,NE,38,3.6,3.6,79,0.00,,,0.00,VWS V13.01,2013-02-25 04:52:00,
2013-02-24 22:53:00,34.7,28.9,29.68,NE,38,4.0,4.0,79,0.00,,,0.00,VWS V13.01,2013-02-25 04:53:00,
2013-02-24 22:55:00,34.5,28.7,29.68,NE,38,5.4,5.4,79,0.00,,,0.00,VWS V13.01,2013-02-25 04:55:00,
2013-02-24 22:57:00,34.7,28.9,29.68,NE,39,3.1,3.1,79,0.00,,,0.00,VWS V13.01,2013-02-25 04:57:00,
2013-02-24 22:58:00,34.7,28.9,29.68,NE,39,4.0,4.0,79,0.00,,,0.00,VWS V13.01,2013-02-25 04:58:00,
2013-02-24 22:59:00,34.7,28.9,29.68,NE,36,4.0,4.0,79,0.00,,,0.00,VWS V13.01,2013-02-25 04:59:00,
2013-02-24 23:00:00,34.7,28.9,29.68,NE,36,4.0,4.0,79,0.00,,,0.00,VWS V13.01,2013-02-25 05:00:00,
2013-02-24 23:05:00,34.7,28.9,29.68,NNE,32,3.1,3.1,79,0.00,,,0.00,VWS V13.01,2013-02-25 05:05:00,
2013-02-24 23:10:00,34.5,28.7,29.68,NNE,33,3.1,3.1,79,0.00,,,0.00,VWS V13.01,2013-02-25 05:10:00,
2013-02-24 23:15:00,34.5,28.7,29.68,NE,43,0.0,0.0,79,0.00,,,0.00,VWS V13.01,2013-02-25 05:15:00,
2013-02-24 23:20:00,34.5,28.7,29.68,NNE,29,4.0,4.0,79,0.00,,,0.00,VWS V13.01,2013-02-25 05:20:00,
2013-02-24 23:25:00,34.3,28.5,29.68,NE,39,4.0,4.0,79,0.00,,,0.00,VWS V13.01,2013-02-25 05:25:00,
2013-02-24 23:30:00,34.2,28.3,29.68,NE,43,6.3,6.3,79,0.00,,,0.00,VWS V13.01,2013-02-25 05:30:00,
2013-02-24 23:35:00,34.2,28.3,29.68,NE,42,5.4,5.4,79,0.00,,,0.00,VWS V13.01,2013-02-25 05:35:00,
2013-02-24 23:40:00,34.2,28.3,29.68,NE,42,5.4,5.4,79,0.00,,,0.00,VWS V13.01,2013-02-25 05:40:00,
2013-02-24 23:41:00,34.2,28.3,29.68,NE,38,4.0,4.0,79,0.00,,,0.00,VWS V13.01,2013-02-25 05:41:00,
2013-02-24 23:45:00,34.2,28.3,29.68,NNE,25,5.4,5.4,79,0.00,,,0.00,VWS V13.01,2013-02-25 05:45:00,
2013-02-24 23:46:00,34.2,28.3,29.68,NE,45,4.9,4.9,79,0.00,,,0.00,VWS V13.01,2013-02-25 05:46:00,
2013-02-24 23:50:00,34.2,28.3,29.68,NE,48,4.9,4.9,79,0.00,,,0.00,VWS V13.01,2013-02-25 05:50:00,
2013-02-24 23:51:00,34.2,28.3,29.68,NE,35,5.8,5.8,79,0.00,,,0.00,VWS V13.01,2013-02-25 05:51:00,
2013-02-24 23:55:00,34.2,28.3,29.68,ENE,59,6.3,6.3,79,0.00,,,0.00,VWS V13.01,2013-02-25 05:55:00,
2013-02-24 23:56:00,34.2,28.3,29.68,NE,47,5.4,5.4,79,0.00,,,0.00,VWS V13.01,2013-02-25 05:56:00,